AirNav   Air Wisconsin Up To $57,000 Bonus
 
 581 users online  

1S9 Chewelah Municipal Airport
Chewelah, Washington, USA

GOING TO CHEWELAH?


FAA INFORMATION EFFECTIVE 19 MAY 2022

Location

FAA Identifier: 1S9
Lat/Long: 48-18-50.2495N 117-44-36.3335W
48-18.837492N 117-44.605558W
48.3139582,-117.7434260
(estimated)
Elevation: 2084 ft. / 635 m (estimated)
Variation: 20E (1985)
Time zone: UTC -7 (UTC -8 during Standard Time)
Zip code: 99109

Airport Operations

Airport use: Open to the public
Activation date: 01/1979
Control tower: no
ARTCC: SEATTLE CENTER
FSS: SEATTLE FLIGHT SERVICE STATION
NOTAMs facility: SEA (NOTAM-D service available)
Attendance: UNATNDD
Wind indicator: lighted
Segmented circle: yes
Lights: ACTVT MIRL RY 17/35 - CTAF. PAPI RY 17 AND RY 35 OPER CONTINUOUSLY.
Beacon: white-green (lighted land airport)
Operates sunset to sunrise.

Airport Communications

CTAF: 122.9
WX AWOS-3 at 63S (15 nm N): 119.275 (509-684-8994)

Nearby radio navigation aids

NDB name  Hdg/Dist  Freq  Var  ID
DEER PARK313/24.336516EDPY -.. .--. -.--
IONE188/27.137921EION .. --- -.

Airport Services

Parking: tiedowns
Airframe service: MINOR
Powerplant service: MINOR
Bottled oxygen: NONE
Bulk oxygen: NONE

Runway Information

Runway 17/35

Dimensions: 3537 x 48 ft. / 1078 x 15 m
Surface: asphalt, in good condition
Runway edge lights: medium intensity
Runway edge markings: MARKINGS FADED.
RUNWAY 17  RUNWAY 35
Latitude: 48-19.124150N48-18.550833N
Longitude: 117-44.531783W117-44.679333W
Traffic pattern: rightleft
Displaced threshold: 230 ft.87 ft.
Markings: basic, in poor conditionbasic, in poor condition
Visual slope indicator: 2-light PAPI on right (4.00 degrees glide path)2-light PAPI on left (3.00 degrees glide path)
Obstructions: 11 ft. tree, 275 ft. from runway, 63 ft. right of centerline, 6:1 slope to clear
3 FT DITCH +1 FT TO +3 FT ROCKS & RD 56 FT FM THR; 77 FT L, +14 FT TREES 200 FT FM THR, AND 10 FT SIGN, 86 FT R, 53 FT FM THR.
none

Airport Ownership and Management from official FAA records

Ownership: Publicly-owned
Owner: CITY OF CHEWELAH
PO BOX 258
CHEWELAH, WA 99109
Phone 509-935-8311
Manager: TYRONE BRYANT
139 RICHMOND LANE
CHEWELAH, WA 99109
Phone (509) 936-0234

Airport Operational Statistics

Aircraft based on the field: 17
Single engine airplanes: 16
Multi engine airplanes: 1
    
Aircraft operations: avg 96/week *
60% local general aviation
40% transient general aviation
* for 12-month period ending 31 December 2018

Additional Remarks

ALL PATTERNS TO THE WEST.
DEER & WILDLIFE ON & INVOF ARPT.
FOR CD CTC SEATTLE ARTCC AT 253-351-3694.
LODGING & FOOD AVBL AT APRT.

Instrument Procedures

There are no published instrument procedures at 1S9.

Some nearby airports with instrument procedures:

KDEW - Deer Park Airport (24 nm SE)
KSFF - Felts Field Airport (41 nm SE)
KSKA - Fairchild Air Force Base (42 nm S)
KGEG - Spokane International Airport (43 nm S)
KSZT - Sandpoint Airport (47 nm E)
 
Loc | Ops | Rwys | IFR | FBO | Links
Com | Nav | Svcs | Stats | Notes
Area around 1S9 (Chewelah Municipal Airport)
 
Road maps at: MapQuest Bing Google
 
Aerial photo
WARNING: Photo may not be current or correct
Aerial photo of 1S9 (Chewelah Municipal Airport)
Photo by P.J. Reinders
Taken in September 2008

Do you have a better or more recent aerial photo of Chewelah Municipal Airport that you would like to share? If so, please send us your photo.

 
Sectional chart

 
Airport distance calculator
Flying to Chewelah Municipal Airport? Find the distance to fly.

From to 1S9

Sunrise and sunset
Times for 18-May-2022
 Local
(UTC-7)
 Zulu
(UTC)
Morning civil twilight04:3011:30
Sunrise05:0812:08
Sunset20:2703:27
Evening civil twilight21:0504:05

Current date and time
Zulu (UTC)  19-May-2022 06:01:12
Local (UTC-7)  18-May-2022 23:01:12
 
METAR
K63S 
14nm N 
190555Z AUTO 21007KT 180V240 10SM FEW031 SCT040 SCT050 10/M08 A2982 RMK A01
KDEW 
24nm SE 
190553Z AUTO 25012KT 10SM CLR 09/M04 A2987 RMK AO2 SLP118 T00891039 10172 20089 51010
TAF
KSFF 
42nm SE 
190520Z 1906/2006 25012G18KT P6SM FEW080 FM191100 23011KT P6SM SCT100 FM191800 25012G18KT P6SM BKN060 FM200000 26010KT P6SM SCT060 OVC100
KSKA 
42nm S 
181900Z 1819/2001 20020G30KT 9999 BKN040 620507 510003 QNH2989INS BECMG 1819/1820 23020G35KT 9999 BKN040 620507 510003 QNH2989INS BECMG 1901/1902 25012KT 9999 SCT060 QNH2985INS BECMG 1914/1915 24010G15KT 9999 SCT040 BKN060 620604 QNH2990INS BECMG 1923/1924 30009KT 9999 BKN070 620704 QNH2993INS TX14/1900Z TN02/1912Z
KGEG 
43nm S 
190520Z 1906/2006 23022G28KT P6SM FEW080 FM191100 22018G24KT P6SM SCT100 FM191800 24014G22KT P6SM BKN060 FM200000 22012KT P6SM SCT060 OVC100
KCOE 
50nm SE 
190520Z 1906/2006 24014G20KT P6SM FEW080 FM191000 22011KT P6SM FEW070 SCT100 FM191600 22010KT P6SM BKN060 FM200000 21009KT P6SM SCT060 OVC090
NOTAMs
Click for the latest NOTAMs
NOTAMs are issued by the DoD/FAA and will open in a separate window not controlled by AirNav.

 

 
 

Would you like to see your business listed on this page?

 If your business provides an interesting product or service to pilots, flight crews, aircraft, or users of the Chewelah Municipal Airport, you should consider listing it here.  To start the listing process, click on the button below
 
Add a business
 

Other Pages about Chewelah Municipal Airport

Update a link
 
Copyright © AirNav, LLC. All rights reserved. Privacy Policy  Contact